User: anonymous   Login
Location: Eurasberg
(48.3353°N, 11.0839°E)
Time: 02:13:06
(UTC+00:00)
Language:

Cosmos 2251 Rocket - Orbit

View from above orbital plane
View from above orbital plane
View from above satellite
View from above satellite

Ground track
Ground track

The orbit is defined by the following mean orbital elements,

1 22676U          26073.49912990 +.00000000 +00000-0 +66856-4 0 00002
2 22676  74.0395 100.1298 0017048  63.9148 296.3756 14.35264772    04
Epoch (UTC): 14 March 2026 11:58:44
Eccentricity: 0.0017048
inclination: 74.0395°
perigee height: 762 km
apogee height: 786 km
right ascension of ascending node: 100.1298°
argument of perigee: 63.9148°
revolutions per day: 14.35264772
mean anomaly at epoch: 296.3756°

The dashed part of the orbit path shows where the satellite is in the earth's shadow,  

DLR